Back to catalog

STARLINK-37262

AliveCommunicationsVLEO
NORAD 68508·PAYLOAD·🇺🇸 United States

Launched Mar 30, 2026 from Cape Canaveral Space Force Station

Loading…

Next Passes (next 24 hours)

TLE

FreshSource: CelesTrak SupGP

Epoch: Sep 14, 2026, 22:34 UTC

1 68508C 26068A   26257.94076389  .00018413  00000+0  54401-3 0  2577
2 68508  53.1589 320.0462 0001246  82.9313 204.4527 15.34381237    18

Track STARLINK-37262 in real time with AllMySat

Download on the App Store